Temperature
13 12 12 11 11 11 11 11 11 10 10 10 10 10 10 9 9 9 9 9 9 9 9 9 9 9 9 9 9 9 9 9 9 9 9 9 9 9 9 8 8 8 8
13 12 12 11 11 11 11 11 10 10 10 10 10 9 9 9 9 9 9 9 9 9 9 9 9 8 8 9 9 9 9 9 9 9 9 9 9 9 9 8 8 8 7
13 12 12 11 11 11 11 10 10 10 10 10 9 9 9 9 9 9 9 9 9 9 9 9 8 8 8 9 9 9 9 9 9 9 9 9 9 9 8 8 8 8 7
12 12 12 12 11 11 11 10 10 10 10 9 9 9 9 9 9 9 9 9 9 9 9 9 9 9 8 9 9 9 9 9 9 9 9 9 8 8 8 8 8 7 7
12 12 12 11 11 11 11 10 10 10 9 9 9 9 9 9 9 9 9 9 9 9 9 9 9 9 9 9 9 8 8 8 8 8 8 8 8 8 8 8 7 7 7
12 12 12 11 11 11 11 10 10 10 9 9 9 9 9 9 9 9 9 9 9 9 9 9 9 9 9 9 9 9 9 8 8 8 8 8 8 7 7 7 7 7 6
12 12 12 11 11 11 11 10 10 9 9 9 8 8 8 9 9 9 9 9 9 9 9 9 9 9 9 9 9 9 9 8 8 8 8 8 8 7 7 7 7 6 6
12 12 12 11 11 11 10 10 10 9 9 9 8 8 9 9 9 9 9 9 9 9 9 9 9 9 9 9 9 9 9 8 8 8 8 8 7 7 7 7 6 6 6
12 12 12 11 11 11 11 10 10 10 9 9 9 9 9 10 9 9 10 10 9 9 9 9 9 9 9 9 9 9 9 8 8 8 8 7 7 7 7 6 6 6 6
12 12 12 12 11 11 11 11 10 10 9 9 9 9 9 9 9 9 9 10 9 9 9 9 9 9 9 9 9 9 9 8 8 8 8 7 7 7 6 6 6 5 5
12 12 12 11 11 11 11 11 10 10 10 9 9 9 9 9 9 9 9 9 9 9 9 9 9 9 9 9 9 9 9 8 8 8 8 7 7 7 6 6 5 5 5
12 12 12 12 11 11 11 11 11 10 10 9 9 9 9 9 9 9 9 9 9 9 9 9 9 9 9 9 9 9 8 8 8 8 7 7 7 7 6 6 5 5 4
12 12 12 12 12 11 11 11 11 10 10 10 10 9 9 9 9 9 9 9 9 9 9 10 10 9 9 9 9 8 8 8 8 7 7 7 7 6 6 6 5 5 4
12 12 12 12 12 11 11 11 11 10 10 10 10 10 9 9 9 9 9 9 8 9 9 9 9 9 9 9 8 8 8 8 8 7 7 7 6 6 6 5 5 4 4
12 12 12 12 12 12 11 11 11 10 10 10 10 10 9 10 10 9 9 9 8 8 9 9 9 9 9 8 8 8 8 8 7 7 7 6 6 6 5 5 4 4 3
12 12 12 12 12 12 11 11 11 10 10 10 10 10 10 9 10 9 9 9 8 8 8 8 8 8 8 8 8 8 7 7 7 7 6 6 6 5 5 4 4 3 3
12 12 12 12 12 12 11 11 11 11 10 10 10 10 10 10 9 9 9 9 9 8 8 8 8 8 8 8 7 7 7 7 7 6 6 6 5 5 5 4 3 3 2
12 12 12 12 12 12 12 11 11 11 10 10 10 10 10 10 10 10 9 9 9 9 8 8 8 8 8 7 7 7 7 7 6 6 6 5 5 4 4 4 3 2 2
12 12 12 12 12 12 12 11 11 11 11 10 10 10 10 10 10 10 9 9 9 9 8 8 8 7 7 7 7 7 6 6 6 6 5 5 4 4 3 3 3 2 2
12 12 12 12 12 12 12 11 11 11 11 10 10 10 10 10 10 10 9 9 9 8 8 8 8 7 7 7 7 6 6 6 5 5 5 4 4 4 3 3 2 2 1
12 12 11 11 11 11 11 11 11 11 10 10 10 10 10 10 10 10 9 9 9 8 8 8 7 7 7 6 6 6 5 5 5 5 4 4 4 3 3 2 2 1 1
11 11 11 11 11 11 11 11 11 10 10 10 10 10 10 10 10 9 9 9 8 8 8 8 7 7 7 6 6 5 5 4 4 4 4 4 3 3 2 2 1 1 0
11 11 11 11 11 11 11 11 10 10 10 10 10 10 10 10 10 9 9 8 8 8 8 7 7 7 6 6 5 5 4 4 4 3 3 3 3 2 2 1 1 0 -0
11 11 11 11 11 11 11 11 10 10 10 10 10 10 10 10 9 9 9 9 8 8 7 7 7 6 6 5 5 4 4 3 3 3 2 2 2 2 2 1 1 -0 -1
10 10 10 10 11 11 11 11 10 10 9 9 9 9 9 9 9 9 9 8 8 8 7 7 6 6 5 5 4 4 3 3 2 2 2 1 1 1 1 1 0 -0 -1
10 10 10 10 10 10 10 10 10 10 9 9 9 9 9 9 9 9 8 8 8 8 7 7 6 5 5 4 4 3 3 2 2 1 1 1 0 -1 -1 -0 -0 -1 -2
Wind_Speed
12 12 11 11 12 12 11 10 9 9 9 8 7 8 7 6 6 5 5 6 4 4 4 5 4 4 4 4 4 3 3 3 3 4 4 5 5 6 7 7 8 9 10
13 12 11 10 11 12 11 10 10 9 7 7 7 7 7 6 6 5 5 5 4 2 2 2 3 2 2 2 2 2 1 1 2 2 3 4 5 6 6 7 8 9 10
15 13 11 11 11 12 12 10 10 8 6 7 7 7 6 6 6 5 4 4 3 3 1 1 1 2 2 2 2 2 1 1 2 2 3 4 5 6 7 8 9 9 10
18 14 11 11 12 12 11 9 9 8 7 7 7 6 6 5 6 6 5 4 4 3 3 1 1 2 3 3 3 3 3 3 3 4 5 5 6 7 8 9 9 10 11
19 15 12 11 14 11 10 9 9 8 8 7 6 5 5 5 5 6 6 5 5 4 4 3 2 3 4 4 5 5 5 5 6 6 6 7 8 8 9 10 10 11 12
19 15 12 13 14 11 10 10 10 9 7 7 6 5 5 5 5 6 6 6 6 6 6 5 5 5 5 6 7 7 7 8 8 8 8 9 9 10 10 11 12 12 13
19 16 12 14 13 12 12 12 10 11 8 7 6 5 5 6 6 6 6 6 7 7 7 7 7 7 6 7 8 8 9 9 9 9 10 10 11 11 12 12 13 13 14
19 16 15 14 14 12 13 13 11 9 8 8 6 5 4 5 6 6 6 6 7 7 7 8 9 8 8 8 7 8 9 10 11 11 11 12 12 13 13 13 14 14 15
19 18 17 15 15 13 13 14 14 13 10 9 8 5 4 4 3 5 6 6 7 6 7 8 9 10 10 9 9 9 10 11 12 13 13 13 13 14 14 14 15 15 16
19 19 18 17 16 14 14 14 14 12 12 10 8 7 5 2 3 3 5 6 6 7 7 6 8 10 10 10 10 10 10 12 13 14 14 15 15 15 15 15 16 17 17
18 19 18 17 16 14 15 15 15 14 12 11 9 7 6 5 5 4 4 4 5 6 6 7 7 8 9 10 10 10 11 13 14 14 15 15 15 16 16 16 17 18 18
15 19 18 17 16 14 15 15 15 16 13 13 10 9 7 6 6 6 6 5 5 4 5 6 6 7 8 9 10 11 12 13 14 14 15 15 15 16 16 17 18 18 18
14 19 18 17 16 15 15 15 15 15 15 15 13 10 10 9 6 6 6 5 6 5 4 5 6 6 7 7 8 10 12 13 14 14 15 15 15 16 16 17 17 18 18
16 19 20 19 18 17 16 15 14 15 14 15 14 13 10 9 8 8 7 6 6 6 6 6 4 6 6 6 6 8 9 12 13 13 14 14 14 15 16 16 16 17 17
15 19 20 19 19 18 18 16 14 16 14 15 14 14 12 10 9 9 8 7 7 6 6 5 4 4 5 5 5 7 8 8 11 12 13 13 13 14 14 14 15 16 16
17 18 19 19 19 19 18 17 14 15 15 14 12 14 13 10 9 8 8 8 8 8 7 4 4 4 4 4 5 6 7 8 9 10 11 12 12 12 13 13 14 14 15
18 19 19 19 19 19 18 17 16 16 16 15 14 14 14 13 10 9 8 8 8 8 9 8 6 5 5 5 4 5 6 6 6 8 9 10 11 11 11 12 13 14 14
17 17 18 19 19 18 18 18 18 17 17 17 16 15 15 11 13 10 9 9 9 9 9 9 7 5 5 5 5 5 4 5 6 6 8 9 10 10 11 11 12 12 13
17 17 17 18 18 18 18 18 18 17 17 16 16 15 15 14 13 11 10 9 8 7 8 7 7 4 4 3 4 4 4 4 4 5 7 8 9 9 10 11 11 11 12
17 17 18 18 17 17 17 17 17 16 16 15 14 14 14 14 14 12 10 10 8 7 7 6 6 5 4 3 3 4 4 3 4 4 5 6 7 8 9 9 9 10 11
16 16 16 16 16 15 15 16 16 16 15 14 13 13 13 13 13 10 8 9 8 7 6 6 6 5 4 3 3 2 4 4 4 2 4 5 5 5 6 7 8 10 11
16 16 16 16 16 14 15 17 16 15 14 14 13 12 11 11 11 11 10 9 8 8 8 6 5 5 5 4 3 2 3 3 3 1 4 5 4 5 5 6 8 9 11
15 16 16 16 16 16 18 19 18 14 13 13 12 11 9 9 11 9 9 8 6 5 6 6 6 5 4 3 3 3 3 3 3 3 3 4 3 5 5 6 8 9 11
13 14 15 16 15 14 18 19 19 15 11 11 11 12 11 10 10 11 9 7 6 5 5 5 4 3 2 2 2 2 2 3 3 1 2 3 4 6 6 6 6 8 11
11 12 13 14 14 14 17 19 18 12 10 10 10 10 11 10 13 14 11 9 7 4 4 6 5 3 4 3 2 1 1 1 2 2 1 3 4 6 6 5 5 9 11
10 10 10 11 13 12 16 19 19 11 10 9 8 8 10 11 14 15 11 10 9 7 6 5 4 3 2 3 3 1 1 1 1 2 1 2 3 4 4 4 5 7 8
Wind_Direction
164 162 162 162 163 161 162 161 160 157 157 156 158 161 161 158 150 140 127 103 90 104 124 131 129 122 114 116 109 96 84 68 52 38 27 22 13 7 3 1 356 353 351
166 165 164 165 165 166 167 167 164 161 161 164 164 167 167 166 165 159 148 136 111 96 126 142 150 145 133 144 137 124 96 52 22 10 1 356 352 348 345 343 340 339 339
169 168 167 168 169 168 167 168 163 165 164 167 173 175 175 180 182 179 177 179 166 132 127 176 193 194 195 192 193 201 234 272 311 320 324 327 329 329 328 328 328 328 328
172 170 170 171 170 169 170 170 169 171 173 179 179 178 183 185 199 199 199 201 204 202 176 152 229 236 235 228 232 238 252 264 279 290 301 308 312 314 315 317 318 318 319
174 174 174 172 171 172 175 174 177 179 179 182 183 185 193 199 204 210 214 212 215 220 223 188 212 249 257 252 250 254 257 264 273 281 287 292 297 301 304 307 308 310 311
178 177 175 174 173 175 178 179 178 180 182 179 180 192 206 212 217 220 222 221 221 224 231 233 235 228 236 254 258 260 264 266 270 277 282 287 292 295 297 299 301 303 305
180 180 177 176 178 181 182 182 178 178 181 179 182 196 211 219 225 222 225 227 223 224 231 236 241 245 238 237 250 257 265 268 272 276 281 286 289 292 294 297 299 300 302
182 182 181 180 182 183 184 185 182 182 181 186 193 192 205 204 213 219 220 225 229 225 230 235 240 243 248 248 240 247 261 267 271 274 279 283 285 288 292 295 297 299 301
184 184 185 184 184 186 187 188 187 188 186 191 202 203 207 209 186 195 212 220 225 228 233 234 238 241 244 247 249 243 248 259 267 272 276 280 283 286 289 292 295 297 299
188 187 188 188 187 190 190 191 193 195 192 191 198 219 234 233 216 194 195 213 224 233 237 235 239 240 239 242 243 250 250 257 264 270 273 277 280 284 287 291 293 296 298
191 190 190 190 191 193 193 192 194 197 199 200 197 196 210 221 236 239 229 217 223 228 235 241 241 242 239 238 241 245 247 254 261 266 271 276 280 284 288 291 293 295 297
191 193 191 192 194 195 196 195 196 200 202 205 204 203 203 206 213 221 237 244 249 241 237 241 240 239 238 239 240 244 247 253 258 264 269 274 278 282 286 290 292 294 296
192 194 192 194 196 197 197 196 198 202 205 207 208 210 215 221 219 223 238 252 261 260 247 241 235 235 234 238 243 240 247 252 258 262 267 271 276 280 285 288 291 294 296
195 193 193 196 197 196 197 197 199 202 206 208 212 213 216 220 219 220 229 243 259 258 245 245 233 230 230 233 244 241 252 250 257 263 267 270 274 279 284 288 290 293 296
195 194 194 196 197 197 197 197 202 203 205 209 212 214 217 219 218 222 225 228 240 261 264 248 235 222 220 233 241 248 256 257 258 265 269 273 276 280 284 288 291 294 296
193 193 195 196 197 197 197 199 203 205 206 209 211 213 216 219 217 217 222 226 230 241 259 258 246 245 229 242 245 254 260 264 261 266 271 273 277 281 284 287 291 295 298
195 194 195 196 197 198 198 200 204 203 207 210 209 214 217 217 215 215 216 220 226 230 248 258 257 255 247 255 251 254 264 268 271 269 272 276 279 280 284 288 292 294 297
195 195 194 196 197 199 199 202 204 204 207 210 210 212 216 213 217 217 214 218 222 224 237 254 259 253 248 258 268 267 268 270 276 279 277 279 281 285 288 291 294 295 298
196 194 194 196 197 198 200 203 205 206 209 211 211 212 213 211 215 215 215 218 219 221 228 241 255 254 255 254 266 269 268 274 281 281 280 279 282 288 290 295 297 299 300
196 195 196 197 197 197 200 203 205 206 209 211 212 212 213 212 214 213 213 215 213 213 217 229 243 249 251 253 263 272 274 282 288 288 287 290 289 286 289 298 300 300 302
197 195 196 197 197 197 199 199 201 203 205 208 209 211 213 211 211 209 206 207 204 208 209 218 232 239 242 240 253 265 279 290 285 281 299 294 293 292 296 295 297 301 303
197 195 195 197 198 199 190 189 194 199 201 204 204 206 206 203 204 202 199 199 197 203 208 212 223 230 240 240 242 254 275 290 284 319 305 297 299 298 304 303 306 303 304
195 195 196 197 200 199 185 184 188 194 197 201 200 199 198 197 193 194 188 183 190 197 205 208 215 226 233 233 230 244 256 272 283 330 313 291 304 302 308 302 300 300 308
195 197 197 197 199 196 182 183 182 193 195 197 199 198 196 191 187 181 178 182 191 198 204 207 211 218 221 216 211 235 253 271 283 320 328 285 307 308 310 297 290 299 307
197 199 196 194 197 193 180 178 175 190 193 194 194 194 192 190 177 170 173 173 170 168 139 146 140 127 113 114 122 123 99 314 286 284 319 293 305 313 302 288 297 303 306
196 195 193 192 193 192 179 176 175 184 187 187 185 187 189 186 175 171 179 177 179 178 160 149 142 129 121 105 108 131 195 259 293 280 339 305 308 326 306 295 308 313 311
Height
1509 1512 1515 1518 1521 1523 1525 1528 1530 1532 1534 1535 1537 1539 1540 1541 1542 1543 1543 1544 1544 1544 1544 1544 1544 1544 1543 1542 1542 1541 1540 1540 1539 1538 1537 1535 1534 1533 1531 1529 1527 1525 1523
1507 1510 1513 1516 1518 1521 1524 1527 1529 1531 1533 1535 1536 1538 1539 1541 1542 1543 1543 1543 1544 1544 1544 1544 1544 1543 1543 1542 1541 1541 1540 1539 1538 1537 1536 1535 1533 1532 1530 1528 1526 1524 1522
1504 1507 1511 1513 1516 1519 1522 1525 1528 1530 1532 1534 1535 1537 1538 1540 1541 1542 1542 1543 1543 1543 1543 1543 1543 1543 1542 1542 1541 1540 1540 1539 1538 1536 1535 1534 1532 1531 1529 1527 1525 1523 1520
1501 1505 1508 1511 1514 1517 1520 1523 1525 1528 1530 1532 1534 1536 1537 1538 1540 1541 1541 1541 1542 1542 1542 1542 1542 1541 1541 1540 1540 1539 1538 1538 1537 1535 1534 1532 1531 1529 1527 1525 1523 1521 1518
1498 1502 1505 1508 1511 1514 1517 1520 1524 1526 1529 1531 1533 1534 1536 1537 1538 1538 1540 1540 1540 1540 1540 1540 1540 1540 1539 1539 1538 1538 1537 1536 1535 1534 1532 1531 1529 1527 1525 1523 1521 1518 1516
1494 1498 1502 1505 1508 1512 1515 1518 1521 1524 1527 1529 1531 1533 1534 1535 1536 1536 1537 1537 1538 1538 1538 1538 1538 1538 1537 1537 1536 1536 1535 1534 1533 1532 1530 1528 1527 1525 1523 1521 1518 1516 1513
1490 1494 1498 1502 1505 1508 1512 1515 1519 1521 1524 1527 1530 1532 1533 1533 1534 1534 1534 1535 1535 1535 1535 1536 1536 1535 1535 1534 1534 1533 1532 1531 1530 1529 1527 1526 1524 1522 1520 1518 1515 1513 1510
1486 1490 1494 1498 1501 1505 1509 1512 1515 1518 1521 1524 1527 1530 1532 1533 1531 1531 1532 1532 1533 1533 1533 1533 1533 1532 1532 1532 1531 1530 1529 1528 1527 1526 1524 1523 1521 1519 1517 1514 1512 1509 1507
1481 1485 1490 1494 1498 1501 1505 1508 1512 1515 1518 1521 1524 1527 1529 1530 1530 1530 1529 1530 1530 1530 1530 1530 1530 1530 1529 1528 1528 1527 1526 1525 1523 1522 1521 1519 1517 1515 1513 1511 1508 1505 1503
1476 1481 1485 1490 1494 1497 1501 1504 1508 1511 1515 1517 1520 1523 1525 1526 1528 1528 1528 1528 1528 1528 1528 1527 1527 1526 1526 1525 1524 1523 1522 1521 1520 1518 1517 1515 1513 1511 1509 1506 1504 1501 1498
1471 1476 1480 1485 1489 1493 1497 1500 1504 1507 1511 1514 1516 1519 1521 1522 1524 1526 1526 1526 1526 1525 1525 1524 1524 1523 1522 1521 1520 1519 1518 1517 1516 1514 1513 1511 1509 1506 1504 1502 1499 1496 1493
1465 1470 1475 1480 1484 1488 1492 1496 1500 1503 1506 1510 1512 1515 1517 1519 1520 1522 1523 1523 1523 1523 1522 1521 1520 1520 1519 1518 1516 1515 1514 1513 1511 1510 1508 1506 1504 1502 1499 1497 1494 1491 1488
1458 1463 1468 1474 1478 1483 1488 1492 1495 1499 1502 1505 1508 1510 1513 1515 1517 1518 1519 1520 1520 1519 1518 1517 1517 1516 1515 1514 1513 1511 1510 1509 1507 1505 1503 1501 1499 1497 1494 1491 1488 1485 1482
1452 1458 1463 1468 1473 1478 1482 1487 1490 1494 1497 1500 1503 1506 1508 1510 1512 1514 1515 1516 1516 1515 1514 1513 1513 1512 1511 1510 1509 1507 1506 1504 1503 1501 1499 1497 1494 1492 1489 1486 1483 1480 1477
1447 1452 1458 1463 1468 1472 1477 1481 1485 1488 1492 1495 1498 1501 1503 1505 1507 1509 1510 1512 1513 1512 1511 1510 1509 1508 1507 1506 1505 1503 1501 1500 1498 1496 1494 1492 1489 1487 1484 1481 1477 1474 1471
1441 1446 1451 1457 1462 1466 1471 1475 1479 1483 1486 1489 1493 1495 1498 1500 1502 1504 1505 1506 1507 1508 1507 1506 1505 1504 1503 1502 1501 1499 1497 1495 1493 1491 1489 1487 1484 1481 1478 1475 1472 1469 1465
1435 1440 1445 1451 1456 1460 1465 1469 1473 1477 1481 1484 1487 1490 1492 1495 1497 1498 1500 1501 1502 1502 1502 1501 1501 1500 1499 1498 1496 1494 1493 1491 1489 1487 1484 1482 1479 1476 1473 1470 1466 1463 1460
1429 1434 1439 1444 1449 1454 1459 1463 1467 1471 1474 1478 1481 1484 1486 1489 1491 1493 1494 1495 1496 1497 1497 1496 1496 1495 1494 1493 1492 1490 1488 1486 1484 1482 1479 1477 1474 1471 1468 1465 1461 1458 1454
1423 1428 1433 1438 1443 1448 1452 1457 1461 1465 1468 1472 1475 1478 1481 1483 1485 1487 1489 1490 1491 1492 1492 1492 1491 1491 1490 1488 1487 1486 1484 1482 1480 1477 1475 1472 1469 1466 1463 1460 1456 1453 1449
1416 1422 1427 1432 1437 1442 1446 1451 1455 1458 1462 1466 1469 1472 1475 1477 1480 1482 1483 1485 1486 1487 1487 1487 1486 1486 1485 1484 1483 1481 1479 1477 1475 1473 1470 1468 1465 1462 1458 1455 1451 1448 1444
1411 1416 1421 1426 1431 1435 1439 1444 1448 1452 1456 1460 1463 1466 1469 1472 1474 1476 1478 1480 1481 1482 1482 1482 1482 1481 1480 1479 1478 1476 1475 1473 1470 1468 1466 1463 1460 1457 1454 1450 1447 1443 1440
1405 1410 1415 1420 1424 1428 1433 1438 1442 1446 1450 1454 1457 1460 1463 1466 1469 1471 1473 1475 1476 1477 1477 1477 1477 1476 1476 1475 1474 1473 1471 1469 1466 1465 1462 1459 1456 1453 1450 1446 1443 1439 1435
1399 1404 1409 1414 1418 1423 1427 1432 1437 1441 1445 1448 1452 1455 1458 1461 1463 1466 1468 1470 1471 1472 1473 1473 1473 1472 1472 1471 1470 1469 1467 1465 1463 1460 1458 1455 1452 1449 1446 1442 1439 1435 1432
1394 1399 1403 1408 1413 1417 1422 1427 1432 1436 1440 1443 1447 1450 1453 1455 1458 1461 1463 1465 1466 1467 1468 1468 1469 1468 1468 1467 1467 1466 1464 1462 1460 1457 1454 1451 1448 1445 1442 1439 1435 1432 1428
1389 1394 1398 1403 1407 1412 1416 1421 1426 1431 1435 1438 1442 1445 1448 1451 1454 1457 1459 1460 1461 1462 1463 1464 1464 1465 1464 1464 1463 1462 1460 1458 1456 1454 1451 1448 1444 1441 1438 1435 1432 1428 1424
1385 1389 1394 1398 1402 1407 1412 1416 1421 1425 1429 1433 1437 1440 1443 1446 1449 1452 1454 1456 1457 1458 1459 1460 1460 1460 1460 1460 1459 1458 1457 1455 1453 1451 1448 1446 1442 1438 1434 1431 1429 1425 1420